GW0774 Weather Reports


time (UTC)temp
F
wind
direction
speed
knots
gust
knots
rain 1hr
in
rain 24hr
in
rain mn
in
humidity
%
barometer
mb
20260508033538 64 86 0.0 2.6 0.00 0.00 0.00 80 1006.7
20260508033046 64 99 0.0 1.7 0.00 0.00 0.00 80 1006.7
20260508032539 64 99 0.0 1.7 0.00 0.00 0.00 80 1006.8
20260508032042 64 98 0.0 0.9 0.00 0.00 0.00 80 1006.9
20260508031546 64 98 0.0 1.7 0.00 0.00 0.00 79 1007.0
20260508031039 65 97 0.0 1.7 0.00 0.00 0.00 78 1007.0
20260508030538 65 0 0.9 2.6 0.00 0.00 0.00 77 1007.1
20260508030056 65 88 0.9 2.6 0.00 0.00 0.00 75 1007.1
20260508025538 66 84 1.7 2.6 0.00 0.00 0.00 74 1007.1
20260508025038 66 0 0.0 1.7 0.00 0.00 0.00 74 1007.2
20260508024600 66 77 0.0 3.5 0.00 0.00 0.00 72 1007.5
20260508024039 66 0 0.0 5.2 0.00 0.00 0.00 72 1007.5
20260508023539 66 58 0.0 5.2 0.00 0.00 0.00 72 1007.8
20260508023052 67 340 0.9 3.5 0.00 0.00 0.00 72 1007.8
20260508022539 67 60 1.7 3.5 0.00 0.00 0.00 72 1008.0
20260508022039 67 0 0.0 3.5 0.00 0.00 0.00 72 1008.3
20260508021548 67 96 0.9 4.3 0.00 0.00 0.00 72 1008.5
20260508021038 67 54 0.0 6.1 0.00 0.00 0.00 73 1008.8
20260508020538 67 348 1.7 6.1 0.00 0.00 0.00 72 1009.1
20260508020049 67 0 0.9 1.7 0.00 0.00 0.00 73 1009.1
20260508015535 67 213 0.0 2.6 0.00 0.00 0.00 72 1009.0
20260508015038 67 0 0.0 2.6 0.00 0.00 0.00 73 1009.1
20260508014546 67 246 0.9 3.5 0.00 0.00 0.00 73 1009.2
20260508014035 67 265 0.9 3.5 0.00 0.00 0.00 73 1009.4
20260508013535 68 253 0.9 2.6 0.00 0.00 0.00 72 1009.4
20260508013052 68 41 0.0 6.1 0.00 0.00 0.00 72 1009.4
20260508012539 68 231 1.7 6.1 0.00 0.00 0.00 72 1009.6
20260508012037 68 265 0.9 7.0 0.00 0.00 0.00 71 1009.6
20260508011559 68 251 1.7 7.0 0.00 0.00 0.00 72 1009.8
20260508011038 68 259 1.7 7.0 0.00 0.00 0.00 71 1009.8
20260508010535 68 237 1.7 7.0 0.00 0.00 0.00 72 1009.7
20260508010058 68 262 2.6 7.0 0.00 0.00 0.00 72 1009.9
20260508005539 68 277 3.5 7.0 0.00 0.00 0.00 72 1010.0
20260508005038 68 64 1.7 7.0 0.00 0.00 0.00 71 1010.1
20260508004554 68 0 2.6 7.8 0.00 0.00 0.00 70 1010.2
20260508004036 68 298 0.9 7.8 0.00 0.00 0.00 71 1010.3
20260508003538 68 63 2.6 8.7 0.00 0.00 0.00 69 1010.4
20260508003056 69 222 1.7 11.3 0.00 0.00 0.00 69 1010.5
20260508002536 69 298 2.6 11.3 0.00 0.00 0.00 68 1010.7
20260508002039 70 250 2.6 8.7 0.00 0.00 0.00 69 1011.1
20260508001548 70 36 2.6 7.0 0.00 0.00 0.00 69 1011.1
20260508001038 70 275 2.6 7.0 0.00 0.00 0.00 69 1011.2
20260508000538 70 46 2.6 10.4 0.00 0.00 0.00 69 1011.4
20260508000047 70 232 1.7 10.4 0.00 0.00 0.00 70 1011.6
20260507235540 69 33 1.7 10.4 0.00 0.00 0.00 70 1011.6
20260507235035 69 84 1.7 10.4 0.00 0.00 0.00 71 1011.8
20260507234544 69 307 4.3 10.4 0.00 0.00 0.00 69 1011.7
20260507234035 69 202 1.7 7.8 0.00 0.00 0.00 70 1011.6
20260507233539 69 64 1.7 5.2 0.00 0.00 0.00 73 1011.7
20260507233043 69 271 1.7 5.2 0.00 0.00 0.00 72 1011.7
20260507232538 68 242 1.7 7.8 0.00 0.00 0.00 72 1011.8
20260507232039 68 227 1.7 7.8 0.00 0.00 0.00 73 1012.0
20260507231546 68 15 2.6 8.7 0.00 0.00 0.00 72 1012.0
20260507231039 69 238 3.5 9.6 0.00 0.00 0.00 72 1012.0
20260507230539 69 0 1.7 9.6 0.00 0.00 0.00 72 1012.0
20260507230051 69 258 1.7 8.7 0.00 0.00 0.00 72 1012.1
20260507225538 69 38 2.6 8.7 0.00 0.00 0.00 73 1012.2
20260507225039 69 73 3.5 8.7 0.00 0.00 0.00 72 1012.2
20260507224557 69 38 2.6 8.7 0.00 0.00 0.00 73 1012.3
20260507224038 69 265 1.7 6.1 0.00 0.00 0.00 72 1012.2
20260507223539 69 205 1.7 6.1 0.00 0.00 0.00 74 1012.3
20260507223046 68 190 1.7 7.0 0.00 0.00 0.00 74 1012.4
20260507222541 68 90 1.7 7.0 0.00 0.00 0.00 75 1012.4
20260507222039 67 84 0.9 3.5 0.00 0.00 0.00 74 1012.6
20260507221548 67 74 0.9 3.5 0.00 0.00 0.00 73 1012.5
20260507221040 67 85 0.9 2.6 0.00 0.00 0.00 73 1012.6
20260507220538 66 99 0.9 1.7 0.00 0.00 0.00 73 1012.7
20260507220049 66 98 0.0 5.2 0.00 0.00 0.00 75 1012.7
20260507215541 66 0 1.7 5.2 0.00 0.00 0.00 75 1012.8
20260507215038 66 83 0.9 3.5 0.00 0.00 0.00 75 1012.9
20260507214545 66 81 0.9 2.6 0.00 0.00 0.00 74 1013.0
20260507214038 66 81 0.9 5.2 0.00 0.00 0.00 74 1013.1
20260507213538 65 91 0.9 8.7 0.00 0.00 0.00 75 1013.1
20260507213102 65 92 0.9 8.7 0.00 0.00 0.00 76 1013.1
20260507212539 65 98 2.6 5.2 0.00 0.00 0.00 74 1013.2
20260507212040 65 82 1.7 3.5 0.00 0.00 0.00 74 1013.2
20260507211550 66 76 0.9 2.6 0.00 0.00 0.00 75 1013.4
20260507211037 65 0 0.9 3.5 0.00 0.00 0.00 76 1013.2
20260507210537 64 90 1.7 3.5 0.00 0.00 0.00 78 1013.1
20260507210046 63 0 1.7 4.3 0.00 0.00 0.00 79 1013.1
20260507205537 63 96 0.9 4.3 0.00 0.00 0.00 80 1013.2
20260507205037 62 90 0.0 2.6 0.00 0.00 0.00 80 1013.3
20260507204557 62 0 0.0 2.6 0.00 0.00 0.00 80 1013.4
20260507204036 62 99 0.9 2.6 0.00 0.00 0.00 81 1013.2
20260507203540 62 99 0.0 2.6 0.00 0.00 0.00 82 1013.3
20260507203045 61 99 0.0 2.6 0.00 0.00 0.00 82 1013.3
20260507202537 61 109 0.9 2.6 0.00 0.00 0.00 83 1013.3
20260507202039 61 113 0.9 2.6 0.00 0.00 0.00 85 1013.2
20260507201547 60 113 1.7 2.6 0.00 0.00 0.00 86 1013.4
20260507201036 60 103 0.9 1.7 0.00 0.00 0.00 86 1013.3
20260507200536 59 102 0.9 1.7 0.00 0.00 0.00 87 1013.4
20260507200042 59 102 0.0 0.9 0.00 0.00 0.00 87 1013.3
20260507195536 59 0 0.0 0.9 0.00 0.00 0.00 87 1013.3
20260507195040 59 0 0.0 0.9 0.00 0.00 0.00 87 1013.3
20260507194554 59 102 0.0 0.9 0.00 0.00 0.00 87 1013.3
20260507194039 59 102 0.0 0.9 0.00 0.00 0.00 86 1013.3
20260507193542 59 101 0.0 1.7 0.00 0.00 0.00 86 1013.3
20260507193108 59 101 0.9 1.7 0.00 0.00 0.00 87 1013.3
20260507192540 58 101 0.0 1.7 0.00 0.00 0.00 88 1013.2
20260507192040 58 101 0.9 1.7 0.00 0.00 0.00 88 1013.3
20260507191551 57 115 0.9 1.7 0.00 0.00 0.00 88 1013.3
20260507191041 57 115 0.9 1.7 0.00 0.00 0.00 88 1013.3
20260507190539 58 114 0.9 1.7 0.00 0.00 0.00 87 1013.4
20260507185540 58 113 0.9 2.6 0.00 0.00 0.00 87 1013.4
20260507185041 58 113 1.7 2.6 0.00 0.00 0.00 87 1013.3
20260507184548 58 113 1.7 2.6 0.00 0.00 0.00 88 1013.3
20260507184041 58 111 0.9 2.6 0.00 0.00 0.00 87 1013.4
20260507183540 58 110 1.7 2.6 0.00 0.00 0.00 86 1013.4
20260507183058 58 110 0.9 2.6 0.00 0.00 0.00 85 1013.4
20260507182542 59 109 1.7 2.6 0.00 0.00 0.00 85 1013.5
20260507182040 59 99 1.7 2.6 0.00 0.00 0.00 84 1013.4
20260507181550 59 98 0.9 2.6 0.00 0.00 0.00 84 1013.5
20260507181040 59 91 0.9 2.6 0.00 0.00 0.00 85 1013.5
20260507180541 59 91 0.0 0.9 0.00 0.00 0.00 85 1013.6
20260507180052 60 0 0.0 0.9 0.00 0.00 0.00 85 1013.6
20260507175539 60 0 0.0 0.9 0.00 0.00 0.00 85 1013.7
20260507175039 60 0 0.0 0.9 0.00 0.00 0.00 85 1013.6
20260507174551 60 0 0.0 1.7 0.00 0.00 0.00 85 1013.7
20260507174041 60 0 0.0 1.7 0.00 0.00 0.00 86 1013.7
20260507173539 59 0 0.0 0.9 0.00 0.00 0.00 86 1013.7
20260507173057 59 0 0.0 0.9 0.00 0.00 0.00 87 1013.7
20260507172543 59 74 0.0 0.9 0.00 0.00 0.00 87 1013.7
20260507172038 59 0 0.0 0.9 0.00 0.00 0.00 86 1013.7
20260507171555 59 0 0.0 0.9 0.00 0.00 0.00 86 1013.8
20260507171039 59 0 0.0 0.9 0.00 0.00 0.00 86 1013.8
20260507170539 59 0 0.0 0.0 0.00 0.00 0.00 86 1013.9
20260507170054 59 0 0.0 0.0 0.00 0.00 0.00 86 1014.0
20260507165538 59 0 0.0 0.9 0.00 0.00 0.00 86 1014.0
20260507165040 60 0 0.0 1.7 0.00 0.00 0.00 86 1014.1
20260507164554 60 0 0.0 1.7 0.00 0.00 0.00 86 1014.0
20260507164038 60 0 0.0 0.9 0.00 0.00 0.00 86 1014.0
20260507163542 60 0 0.0 0.9 0.00 0.00 0.00 85 1014.0
20260507163051 60 0 0.0 0.9 0.00 0.00 0.00 85 1014.1
20260507162540 60 0 0.0 0.9 0.00 0.00 0.00 85 1014.1
20260507162041 60 0 0.0 1.7 0.00 0.00 0.00 84 1014.3
20260507161548 60 87 0.0 1.7 0.00 0.00 0.00 84 1014.3
20260507161039 60 0 0.0 0.9 0.00 0.00 0.00 84 1014.2
20260507160543 60 0 0.0 0.9 0.00 0.00 0.00 84 1014.3
20260507160058 61 88 0.0 0.9 0.00 0.00 0.00 84 1014.3
20260507155538 61 0 0.0 0.9 0.00 0.00 0.00 84 1014.3
20260507155042 61 0 0.0 2.6 0.00 0.00 0.00 84 1014.3
20260507154554 61 0 0.0 2.6 0.00 0.00 0.00 84 1014.5
20260507154041 61 88 0.0 2.6 0.00 0.00 0.00 84 1014.5
20260507153541 61 90 0.0 1.7 0.00 0.00 0.00 84 1014.6
20260507153052 61 91 0.9 3.5 0.00 0.00 0.00 84 1014.6
20260507152538 61 103 0.0 3.5 0.00 0.00 0.00 84 1014.7
20260507152038 61 62 0.0 3.5 0.00 0.00 0.00 85 1014.6
20260507151549 61 0 0.0 2.6 0.00 0.00 0.00 86 1014.7
20260507151038 60 0 0.0 2.6 0.00 0.00 0.00 87 1014.7
20260507150540 60 0 0.0 0.9 0.00 0.00 0.00 88 1014.8
20260507150052 60 0 0.0 2.6 0.00 0.00 0.00 88 1014.9
20260507145536 59 0 0.0 2.6 0.00 0.00 0.00 89 1014.9
20260507145039 59 0 0.0 0.9 0.00 0.00 0.00 89 1015.0
20260507144551 59 0 0.0 0.9 0.00 0.00 0.00 89 1015.1
20260507144037 59 0 0.0 0.0 0.00 0.00 0.00 89 1015.2
20260507143539 59 0 0.0 0.9 0.00 0.00 0.00 89 1015.2
20260507143049 59 0 0.0 0.9 0.00 0.00 0.00 89 1015.2
20260507142537 59 101 0.0 0.9 0.00 0.00 0.00 89 1015.4
20260507142037 59 0 0.0 1.7 0.00 0.00 0.00 89 1015.4
20260507141551 59 101 0.0 1.7 0.00 0.00 0.00 89 1015.4
20260507141039 59 101 0.9 1.7 0.00 0.00 0.00 88 1015.5
20260507140535 59 101 0.0 0.9 0.00 0.00 0.00 88 1015.5
20260507140106 59 0 0.0 0.9 0.00 0.00 0.00 88 1015.6
20260507135536 59 101 0.0 0.9 0.00 0.00 0.00 88 1015.7
20260507135039 59 101 0.0 0.9 0.00 0.00 0.00 88 1015.8
20260507134548 59 0 0.0 0.9 0.00 0.00 0.00 87 1015.8
20260507134038 59 101 0.0 0.0 0.00 0.00 0.00 87 1015.8
20260507133540 59 101 0.0 0.9 0.00 0.00 0.00 87 1015.8
20260507133048 58 0 0.0 0.9 0.00 0.00 0.00 88 1015.9
20260507132536 58 0 0.0 0.0 0.00 0.00 0.00 87 1015.9
20260507132038 58 0 0.0 0.9 0.00 0.00 0.00 87 1016.0
20260507131554 58 0 0.0 1.7 0.00 0.00 0.00 87 1016.0
20260507131042 58 101 0.9 1.7 0.00 0.00 0.00 88 1016.0
20260507130537 58 101 0.0 1.7 0.00 0.00 0.00 88 1016.1
20260507130058 58 0 0.0 1.7 0.00 0.00 0.00 88 1016.1
20260507125536 58 101 0.0 0.9 0.00 0.00 0.00 87 1016.1
20260507125037 58 0 0.0 0.9 0.00 0.00 0.00 87 1016.2
20260507124604 58 0 0.0 0.9 0.00 0.00 0.00 88 1016.2
20260507124036 58 101 0.0 0.9 0.00 0.00 0.00 88 1016.2
20260507123536 58 0 0.0 0.9 0.00 0.00 0.00 88 1016.3
20260507123058 58 0 0.0 0.9 0.00 0.00 0.00 87 1016.3
20260507122538 58 101 0.0 0.0 0.00 0.00 0.00 87 1016.3
20260507122040 58 0 0.0 0.0 0.00 0.00 0.00 87 1016.3
20260507121550 58 0 0.0 0.0 0.00 0.00 0.00 87 1016.4
20260507121039 58 0 0.0 0.0 0.00 0.00 0.00 87 1016.3
20260507120536 58 0 0.0 0.0 0.00 0.00 0.00 87 1016.2
20260507120054 58 0 0.0 0.0 0.00 0.00 0.00 87 1016.2
20260507115539 57 0 0.0 0.0 0.00 0.00 0.00 86 1016.2
20260507115038 57 0 0.0 0.0 0.00 0.00 0.00 86 1016.2
20260507114548 58 0 0.0 0.0 0.00 0.00 0.00 85 1016.2
20260507114040 58 0 0.0 0.9 0.00 0.00 0.00 85 1016.3
20260507113539 58 0 0.0 0.9 0.00 0.00 0.00 85 1016.4
20260507113049 58 0 0.0 0.9 0.00 0.00 0.00 85 1016.4
20260507112539 58 0 0.0 0.9 0.00 0.00 0.00 86 1016.5
20260507112038 58 0 0.0 0.9 0.00 0.00 0.00 86 1016.5
20260507111552 58 109 0.0 0.9 0.00 0.00 0.00 86 1016.4
20260507111038 58 0 0.0 0.9 0.00 0.00 0.00 85 1016.5
20260507110539 59 0 0.0 0.9 0.00 0.00 0.00 85 1016.6
20260507110051 59 109 0.0 0.9 0.00 0.00 0.00 85 1016.6
20260507105538 59 109 0.0 1.7 0.00 0.00 0.00 85 1016.7
20260507105038 59 109 0.9 1.7 0.00 0.00 0.00 85 1016.6
20260507104547 59 109 0.0 1.7 0.00 0.00 0.00 85 1016.9
20260507104039 59 109 0.9 1.7 0.00 0.00 0.00 85 1017.0
20260507103539 59 109 0.0 0.9 0.00 0.00 0.00 85 1017.0
20260507103046 59 0 0.0 0.9 0.00 0.00 0.00 85 1017.2
20260507102538 59 109 0.0 1.7 0.00 0.00 0.00 85 1017.1
20260507102038 60 109 0.0 1.7 0.00 0.00 0.00 85 1017.3
20260507101547 60 108 1.7 1.7 0.00 0.00 0.00 85 1017.2
20260507101041 59 109 0.9 1.7 0.00 0.00 0.00 85 1017.3
20260507100538 59 109 0.0 1.7 0.00 0.00 0.00 85 1017.4
20260507100043 59 0 0.0 0.0 0.00 0.00 0.00 85 1017.4
20260507095539 59 0 0.0 1.7 0.00 0.00 0.00 85 1017.6
20260507095039 59 0 0.0 1.7 0.00 0.00 0.00 85 1017.6
20260507094553 59 109 1.7 1.7 0.00 0.00 0.00 85 1017.6
20260507094038 59 107 1.7 1.7 0.00 0.00 0.00 85 1017.6
20260507093538 59 106 1.7 1.7 0.00 0.00 0.00 84 1017.5
20260507093051 60 106 0.9 1.7 0.00 0.00 0.00 83 1017.4
20260507092539 60 0 0.0 0.0 0.00 0.00 0.00 82 1017.5
20260507092041 60 0 0.0 0.0 0.00 0.00 0.00 81 1017.5
20260507091545 60 0 0.0 0.0 0.00 0.00 0.00 80 1017.5
20260507091038 61 0 0.0 0.0 0.00 0.00 0.00 80 1017.5
20260507090538 61 0 0.0 0.0 0.00 0.00 0.00 80 1017.5
20260507090051 61 0 0.0 0.0 0.00 0.00 0.00 80 1017.5
20260507085540 61 0 0.0 0.0 0.00 0.00 0.00 80 1017.6
20260507085039 61 0 0.0 0.0 0.00 0.00 0.00 80 1017.6
20260507084553 61 0 0.0 0.0 0.00 0.00 0.00 80 1017.7
20260507084036 61 0 0.0 0.0 0.00 0.00 0.00 80 1017.6
20260507083539 61 0 0.0 0.0 0.00 0.00 0.00 79 1017.7
20260507083050 61 0 0.0 0.0 0.00 0.00 0.00 79 1017.7
20260507082543 61 0 0.0 0.0 0.00 0.00 0.00 79 1017.7
20260507082039 61 0 0.0 0.0 0.00 0.00 0.00 80 1017.8
20260507081547 61 0 0.0 0.0 0.00 0.00 0.00 80 1017.7
20260507081040 61 0 0.0 0.0 0.00 0.00 0.00 80 1017.8
20260507080539 60 0 0.0 0.0 0.00 0.00 0.00 80 1017.9
20260507080116 61 0 0.0 0.0 0.00 0.00 0.00 79 1017.8
20260507075538 61 0 0.0 0.0 0.00 0.00 0.00 79 1017.7
20260507075038 61 0 0.0 0.0 0.00 0.00 0.00 78 1017.8
20260507074558 61 0 0.0 0.0 0.00 0.00 0.00 78 1017.7
20260507074039 62 0 0.0 0.9 0.00 0.00 0.00 77 1017.7
20260507073539 62 0 0.0 0.9 0.00 0.00 0.00 76 1017.6
20260507073058 62 115 0.0 0.9 0.00 0.00 0.00 76 1017.6
20260507072539 62 115 0.0 0.9 0.00 0.00 0.00 77 1017.6
20260507072037 62 115 0.0 0.9 0.00 0.00 0.00 78 1017.6
20260507071557 62 115 0.0 0.9 0.00 0.00 0.00 78 1017.7
20260507071041 62 129 0.0 0.9 0.00 0.00 0.00 78 1017.7
20260507070539 61 144 0.0 0.0 0.00 0.00 0.00 78 1017.7
20260507070049 61 0 0.0 0.0 0.00 0.00 0.00 78 1017.7
20260507065538 61 0 0.0 0.0 0.00 0.00 0.00 80 1017.7
20260507065038 61 0 0.0 0.0 0.00 0.00 0.00 80 1017.7
20260507064555 61 0 0.0 0.0 0.00 0.00 0.00 80 1017.8
20260507064038 61 0 0.0 0.0 0.00 0.00 0.00 80 1017.9
20260507063539 61 0 0.0 0.0 0.00 0.00 0.00 80 1017.9
20260507063046 61 0 0.0 0.0 0.00 0.00 0.00 80 1018.0
20260507062536 61 0 0.0 0.0 0.00 0.00 0.00 80 1018.0
20260507062039 61 0 0.0 0.0 0.00 0.00 0.00 80 1017.9
20260507061549 61 0 0.0 0.0 0.00 0.00 0.00 80 1017.9
20260507061036 61 0 0.0 0.0 0.00 0.00 0.00 80 1017.8
20260507060541 61 0 0.0 0.0 0.00 0.00 0.00 80 1017.8
20260507060050 61 0 0.0 0.0 0.00 0.00 0.00 79 1017.9
20260507055540 61 0 0.0 0.0 0.00 0.00 0.00 79 1017.9
20260507055038 62 0 0.0 0.0 0.00 0.00 0.00 79 1018.0
20260507054551 62 0 0.0 0.0 0.00 0.00 0.00 79 1018.0
20260507054040 62 0 0.0 0.9 0.00 0.00 0.00 79 1018.0
20260507053539 62 0 0.0 0.9 0.00 0.00 0.00 78 1017.9
20260507053048 62 153 0.0 0.9 0.00 0.00 0.00 77 1017.9
20260507052538 62 0 0.0 0.0 0.00 0.00 0.00 76 1018.0
20260507052039 63 153 0.0 0.9 0.00 0.00 0.00 76 1018.0
20260507051549 63 0 0.0 0.9 0.00 0.00 0.00 74 1017.9
20260507051038 64 153 0.0 0.9 0.00 0.00 0.00 73 1017.9
20260507050536 64 159 0.0 0.0 0.00 0.00 0.00 72 1017.8
20260507050044 65 0 0.0 0.0 0.00 0.00 0.00 70 1017.9
20260507045539 65 0 0.0 0.0 0.00 0.00 0.00 69 1017.8
20260507045039 66 0 0.0 0.0 0.00 0.00 0.00 68 1017.9
20260507044551 66 0 0.0 0.0 0.00 0.00 0.00 67 1018.0
20260507044038 67 0 0.0 0.0 0.00 0.00 0.00 66 1018.0
20260507043539 67 0 0.0 0.0 0.00 0.00 0.00 65 1018.0
20260507043048 68 0 0.0 0.9 0.00 0.00 0.00 64 1018.0
20260507042539 69 0 0.0 1.7 0.00 0.00 0.00 63 1018.0
20260507042038 69 0 0.0 5.2 0.00 0.00 0.00 62 1018.2
20260507041546 70 265 0.9 5.2 0.00 0.00 0.00 61 1018.1
20260507041059 70 63 0.0 3.5 0.00 0.00 0.00 60 1018.1
20260507040539 71 261 0.9 3.5 0.00 0.00 0.00 60 1018.2
20260507040058 71 68 0.0 2.6 0.00 0.00 0.00 60 1018.4
20260507035539 70 44 0.0 2.6 0.00 0.00 0.00 60 1018.3
20260507035038 70 0 0.0 6.1 0.00 0.00 0.00 60 1018.4
20260507034556 70 53 1.7 11.3 0.00 0.00 0.00 60 1018.5
20260507034035 70 292 2.6 11.3 0.00 0.00 0.00 59 1018.5